Volver al catálogo

STARLINK-34961

ActivoComunicacionesSSO
NORAD 65252·PAYLOAD·🇺🇸 United States

Lanzado Aug 18, 2025 desde Vandenberg Space Force Base

Loading…

Próximos Pases (próximas 24 horas)

TLE

ActualizadoSource: CelesTrak SupGP

Época: Sep 15, 2026, 03:25 UTC

1 65252C 25179T   26258.14284722 -.00042439  00000+0 -13173-2 0  2585
2 65252  97.2834 297.5066 0001206  94.1574 108.0779 15.33462304    13

Sigue STARLINK-34961 en tiempo real con AllMySat

Download on the App Store